Location: De Wetering
(52.7626°N, 5.9922°E)
Time: 05:39:48
(UTC+00:00)

Cosmos 1697 Rocket - Visible Passes

Search period start: 06 June 2026 00:00
Search period end: 16 June 2026 00:00
Orbit: 833 x 841 km, 71.0° (Epoch: 5 June)

Date Brightness Start Highest point End Pass type
(mag) Time Alt. Az. Time Alt. Az. Time Alt. Az.
13 Jun 4.7 02:19:22 10° SSE 02:23:36 22° ESE 02:27:51 10° NE visible
14 Jun 4.7 02:03:02 10° SSE 02:07:07 21° E 02:11:11 10° NE visible
15 Jun 4.8 01:46:43 10° SE 01:50:37 20° E 01:54:31 10° NE visible
